When you browse on this site, cookies collect data to enhance your experience and personalize the content and advertising you see.
Visit our Privacy Policy to learn more. By continuing to use the site, you agree to this use of cookies and data.
  • en France
  • Liste des pays
  • À 7 jours
  • Température de l'eau
  • Carte satellitaire
  • Carte météo
  • Widgets météo
  • user-avatar
    Se connecter

    Météo par heure à Limoges

    Ce jour, 23 Janvier, Mercredi

    Heure Température Précipitation Vent Pression Humidité
    00:00 +1°C° 0 mm 2 m/s 721 mmHg 96%
    01:00 +2°C° 0.2 mm 2 m/s 720 mmHg 97%
    02:00 +2°C° 0.2 mm 2 m/s 720 mmHg 98%
    03:00 +3°C° 0.2 mm 1 m/s 719 mmHg 99%
    04:00 +2°C° 0.4 mm 2 m/s 719 mmHg 99%
    05:00 +2°C° 0.4 mm 2 m/s 718 mmHg 98%
    06:00 +2°C° 0.4 mm 2 m/s 718 mmHg 98%
    07:00 +2°C° 0.3 mm 2 m/s 718 mmHg 97%
    08:00 +1°C° 0.3 mm 3 m/s 718 mmHg 95%
    09:00 +1°C° 0.3 mm 3 m/s 719 mmHg 94%
    10:00 +1°C° 0.3 mm 3 m/s 719 mmHg 90%
    11:00 +2°C° 0.3 mm 3 m/s 719 mmHg 87%
    12:00 +1°C° 0.3 mm 4 m/s 719 mmHg 83%
    13:00 +2°C° 0.3 mm 3 m/s 720 mmHg 83%
    14:00 +1°C° 0.3 mm 3 m/s 720 mmHg 84%
    15:00 +1°C° 0.3 mm 3 m/s 720 mmHg 84%
    16:00 0°C° 0.1 mm 3 m/s 720 mmHg 87%
    17:00 -1°C° 0.1 mm 3 m/s 721 mmHg 90%
    18:00 -2°C° 0.1 mm 2 m/s 721 mmHg 93%
    19:00 -2°C° 0.1 mm 3 m/s 722 mmHg 93%
    20:00 -2°C° 0.1 mm 3 m/s 722 mmHg 92%
    21:00 -3°C° 0.1 mm 4 m/s 723 mmHg 92%
    22:00 -3°C° 0.1 mm 4 m/s 723 mmHg 92%
    23:00 -2°C° 0.1 mm 3 m/s 724 mmHg 91%

    Demain, 24 Janvier, Jeudi

    Heure Température Précipitation Vent Pression Humidité
    00:00 -2°C° 0.1 mm 3 m/s 725 mmHg 91%
    01:00 -2°C° 0 mm 3 m/s 725 mmHg 92%
    02:00 -2°C° 0 mm 3 m/s 726 mmHg 94%
    03:00 -3°C° 0 mm 2 m/s 726 mmHg 95%
    04:00 -3°C° 0 mm 2 m/s 727 mmHg 95%
    05:00 -3°C° 0 mm 2 m/s 727 mmHg 94%
    06:00 -3°C° 0 mm 2 m/s 727 mmHg 94%
    07:00 -4°C° 0 mm 2 m/s 728 mmHg 94%
    08:00 -4°C° 0 mm 2 m/s 728 mmHg 93%
    09:00 -4°C° 0 mm 2 m/s 729 mmHg 92%
    10:00 -3°C° 0 mm 2 m/s 729 mmHg 89%
    11:00 -1°C° 0 mm 3 m/s 730 mmHg 87%
    12:00 0°C° 0 mm 3 m/s 730 mmHg 84%
    13:00 0°C° 0 mm 3 m/s 730 mmHg 84%
    14:00 +1°C° 0 mm 2 m/s 730 mmHg 84%
    15:00 +1°C° 0 mm 2 m/s 730 mmHg 84%
    16:00 -1°C° 0 mm 2 m/s 731 mmHg 87%
    17:00 +1°C° 0 mm 1 m/s 731 mmHg 90%
    18:00 0°C° 0 mm 1 m/s 732 mmHg 94%
    19:00 -2°C° 0 mm 0 m/s 732 mmHg 95%
    20:00 -3°C° 0 mm 0 m/s 732 mmHg 95%
    21:00 -3°C° 0 mm 0 m/s 732 mmHg 96%
    22:00 -3°C° 0 mm 0 m/s 732 mmHg 95%
    23:00 -1°C° 0 mm 1 m/s 732 mmHg 94%

    Après-demain, 25 Janvier, Vendredi

    Heure Température Précipitation Vent Pression Humidité
    00:00 0°C° 0 mm 1 m/s 732 mmHg 93%
    01:00 0°C° 0.5 mm 1 m/s 732 mmHg 93%
    02:00 +1°C° 0.5 mm 1 m/s 731 mmHg 94%
    03:00 -1°C° 0.5 mm 2 m/s 731 mmHg 95%
    04:00 -1°C° 0.5 mm 2 m/s 731 mmHg 96%
    05:00 +2°C° 0.5 mm 1 m/s 731 mmHg 97%
    06:00 +2°C° 0.5 mm 1 m/s 730 mmHg 98%
    07:00 +3°C° 0.2 mm 1 m/s 730 mmHg 98%
    08:00 +3°C° 0.2 mm 1 m/s 731 mmHg 99%
    09:00 +4°C° 0.2 mm 1 m/s 731 mmHg 99%
    10:00 +3°C° 0 mm 2 m/s 732 mmHg 98%
    11:00 +4°C° 0 mm 2 m/s 732 mmHg 97%
    12:00 +4°C° 0 mm 2 m/s 732 mmHg 95%
    13:00 +4°C° 0 mm 2 m/s 733 mmHg 94%
    14:00 +4°C° 0 mm 2 m/s 733 mmHg 93%
    15:00 +3°C° 0 mm 2 m/s 733 mmHg 91%
    16:00 +2°C° 0 mm 2 m/s 734 mmHg 93%
    17:00 +1°C° 0 mm 2 m/s 734 mmHg 95%
    18:00 +1°C° 0 mm 1 m/s 735 mmHg 97%
    19:00 0°C° 0 mm 1 m/s 735 mmHg 97%
    20:00 0°C° 0 mm 1 m/s 736 mmHg 97%
    21:00 -1°C° 0 mm 1 m/s 736 mmHg 97%
    22:00 -2°C° 0 mm 0 m/s 736 mmHg 97%
    23:00 -2°C° 0 mm 0 m/s 736 mmHg 97%

    26 Janvier, Samedi

    Heure Température Précipitation Vent Pression Humidité
    00:00 -3°C° 0 mm 0 m/s 737 mmHg 96%
    01:00 -2°C° 0 mm 0 m/s 737 mmHg 95%
    02:00 -1°C° 0 mm 0 m/s 736 mmHg 93%
    03:00 0°C° 0 mm 0 m/s 736 mmHg 92%
    04:00 +1°C° 0.1 mm 1 m/s 736 mmHg 93%
    05:00 +2°C° 0.1 mm 1 m/s 736 mmHg 93%
    06:00 +2°C° 0.1 mm 1 m/s 736 mmHg 94%
    07:00 +2°C° 0 mm 1 m/s 736 mmHg 95%
    08:00 +3°C° 0 mm 1 m/s 736 mmHg 96%
    09:00 +3°C° 0 mm 1 m/s 736 mmHg 97%
    10:00 +4°C° 0.1 mm 1 m/s 735 mmHg 97%
    11:00 +4°C° 0.1 mm 1 m/s 735 mmHg 98%
    12:00 +4°C° 0.1 mm 2 m/s 735 mmHg 98%
    13:00 +4°C° 0 mm 2 m/s 734 mmHg 97%
    14:00 +5°C° 0 mm 2 m/s 733 mmHg 97%
    15:00 +5°C° 0 mm 2 m/s 733 mmHg 97%
    16:00 +5°C° 0.1 mm 2 m/s 732 mmHg 97%
    17:00 +5°C° 0.1 mm 2 m/s 732 mmHg 98%
    18:00 +4°C° 0.1 mm 3 m/s 731 mmHg 98%
    19:00 +4°C° 0.5 mm 3 m/s 731 mmHg 98%
    20:00 +4°C° 0.5 mm 3 m/s 730 mmHg 98%
    21:00 +4°C° 0.5 mm 3 m/s 729 mmHg 98%
    22:00 +5°C° 1.1 mm 3 m/s 729 mmHg 97%
    23:00 +5°C° 1.1 mm 3 m/s 729 mmHg 97%

    27 Janvier, Dimanche

    Heure Température Précipitation Vent Pression Humidité
    00:00 +5°C° 1.1 mm 3 m/s 728 mmHg 97%
    01:00 +4°C° 0.4 mm 3 m/s 728 mmHg 95%
    02:00 +3°C° 0.4 mm 3 m/s 728 mmHg 93%
    03:00 +2°C° 0.4 mm 3 m/s 728 mmHg 91%
    04:00 +1°C° 0 mm 3 m/s 728 mmHg 93%
    05:00 +1°C° 0 mm 2 m/s 729 mmHg 94%
    06:00 -1°C° 0 mm 2 m/s 729 mmHg 95%
    07:00 -1°C° 0 mm 2 m/s 730 mmHg 94%
    08:00 -1°C° 0 mm 2 m/s 731 mmHg 92%
    09:00 +1°C° 0 mm 2 m/s 732 mmHg 91%
    10:00 0°C° 0.1 mm 3 m/s 732 mmHg 86%
    11:00 +1°C° 0.1 mm 3 m/s 732 mmHg 81%
    12:00 +1°C° 0.1 mm 4 m/s 732 mmHg 76%
    13:00 +1°C° 0.4 mm 4 m/s 731 mmHg 78%
    14:00 +1°C° 0.4 mm 3 m/s 731 mmHg 81%
    15:00 +1°C° 0.4 mm 3 m/s 731 mmHg 83%
    16:00 0°C° 0.2 mm 3 m/s 730 mmHg 86%
    17:00 0°C° 0.2 mm 3 m/s 730 mmHg 89%
    18:00 -1°C° 0.2 mm 2 m/s 730 mmHg 92%
    19:00 -2°C° 0 mm 2 m/s 730 mmHg 93%
    20:00 -2°C° 0 mm 2 m/s 730 mmHg 93%
    21:00 -2°C° 0 mm 2 m/s 730 mmHg 93%
    22:00 -2°C° 0.1 mm 2 m/s 730 mmHg 93%
    23:00 -2°C° 0.1 mm 2 m/s 730 mmHg 94%

    28 Janvier, Lundi

    Heure Température Précipitation Vent Pression Humidité
    00:00 -1°C° 0.1 mm 2 m/s 730 mmHg 94%
    01:00 -1°C° 0.1 mm 2 m/s 730 mmHg 94%
    02:00 -1°C° 0.1 mm 2 m/s 730 mmHg 94%
    03:00 -1°C° 0.1 mm 2 m/s 730 mmHg 95%
    04:00 -1°C° 0.3 mm 3 m/s 730 mmHg 94%
    05:00 -1°C° 0.3 mm 3 m/s 730 mmHg 94%
    06:00 -1°C° 0.3 mm 3 m/s 730 mmHg 94%
    07:00 -1°C° 0.2 mm 3 m/s 730 mmHg 92%
    08:00 -1°C° 0.2 mm 3 m/s 730 mmHg 90%
    09:00 -1°C° 0.2 mm 3 m/s 731 mmHg 88%
    10:00 -1°C° 0 mm 3 m/s 731 mmHg 84%
    11:00 -1°C° 0 mm 4 m/s 731 mmHg 80%
    12:00 -1°C° 0 mm 4 m/s 731 mmHg 76%
    13:00 0°C° 0 mm 3 m/s 731 mmHg 77%
    14:00 0°C° 0 mm 3 m/s 731 mmHg 78%
    15:00 0°C° 0 mm 3 m/s 731 mmHg 78%
    16:00 -1°C° 0 mm 2 m/s 731 mmHg 84%
    17:00 -2°C° 0 mm 2 m/s 732 mmHg 89%
    18:00 -1°C° 0 mm 1 m/s 732 mmHg 94%
    19:00 -2°C° 0 mm 1 m/s 732 mmHg 95%
    20:00 -2°C° 0 mm 1 m/s 733 mmHg 95%
    21:00 -3°C° 0 mm 1 m/s 733 mmHg 96%
    22:00 -3°C° 0 mm 1 m/s 733 mmHg 97%
    23:00 -3°C° 0 mm 1 m/s 733 mmHg 97%
    Voir plus